Stations météo

réclame
Mon MeteoGroup
Pembrey Sands, Grande-Bretagne (3605): Température de l'air & dewpoint: 11.11.2017 17:00:00 - 17.11.2017 17:00:00 (GMT)Pembrey Sands, Grande-Bretagne (3605): Vitesse du vent & gusts: 11.11.2017 17:00:00 - 17.11.2017 17:00:00 (GMT)Pembrey Sands, Grande-Bretagne (3605): Direction du vent: 11.11.2017 17:00:00 - 17.11.2017 17:00:00 (GMT)Pembrey Sands, Grande-Bretagne (3605): reduced air pressure: 11.11.2017 17:00:00 - 17.11.2017 17:00:00 (GMT)Pembrey Sands, Grande-Bretagne (3605): visibility: 11.11.2017 17:00:00 - 17.11.2017 17:00:00 (GMT)Pembrey Sands, Grande-Bretagne (3605): Quantités de précipitations: 11.11.2017 17:00:00 - 17.11.2017 17:00:00 (GMT)
Date & Time tt [°C] td [°C] ff [km/h] ff [knt] fx [km/h] fx [knt] dd ppp [hPa] vv [km] rr [mm]
17.11.2017 17:00:00 - - - - - - - - - 0,0
17.11.2017 16:00:00 8,6 3,5 5 3 - - SW 1029,4 40 0,0
17.11.2017 15:00:00 9,1 1,8 5 3 - - SW 1029,5 40 0,0
17.11.2017 14:00:00 9,3 1,8 8 4 - - SSW 1029,8 40 0,0
17.11.2017 13:00:00 9,4 1,2 5 3 - - SSE 1030,4 40 0,0
17.11.2017 12:00:00 7,9 3,5 4 2 - - NNW 1031,3 35 0,0
17.11.2017 11:00:00 6,4 4,0 4 2 - - NNW 1031,7 30 0,0
17.11.2017 10:00:00 5,3 3,2 4 2 - - NE 1031,2 35 0,0
17.11.2017 09:00:00 4,0 2,4 4 2 - - E 1031,1 30 0,0
17.11.2017 08:00:00 3,2 2,1 8 4 - - ENE 1030,9 28 0,0
17.11.2017 07:00:00 3,3 1,6 11 6 - - E 1030,3 29 0,0
17.11.2017 06:00:00 2,2 1,6 5 3 - - E 1030,5 26 -
17.11.2017 05:00:00 0,2 -0,6 8 4 - - NNE 1030,5 21 0,0
17.11.2017 04:00:00 0,9 -0,1 8 4 - - NNE 1030,4 23 0,0
17.11.2017 03:00:00 2,2 1,4 4 2 - - SSE 1030,4 25 0,0
17.11.2017 02:00:00 0,4 -0,3 9 5 - - NE 1030,4 23 0,0
17.11.2017 01:00:00 0,1 -1,3 8 4 - - NE 1030,3 21 0,0
17.11.2017 00:00:00 2,9 0,6 9 5 - - E 1030,0 28 0,0
16.11.2017 23:00:00 3,7 1,4 15 8 - - E 1029,8 27 0,0
16.11.2017 22:00:00 0,9 0,3 8 4 - - E 1029,6 24 0,0
16.11.2017 21:00:00 0,7 -0,3 8 4 - - NE 1029,1 21 0,0
16.11.2017 20:00:00 1,4 0,3 8 4 - - E 1028,4 22 0,0
16.11.2017 19:00:00 2,2 0,6 5 3 - - NNE 1027,8 25 0,0
16.11.2017 18:00:00 3,5 0,8 9 5 - - N 1027,2 30 0,0
16.11.2017 17:00:00 6,3 2,7 11 6 - - N 1026,2 30 0,0
16.11.2017 16:00:00 9,2 3,9 24 13 - - N 1025,4 30 0,0
16.11.2017 15:00:00 10,5 5,7 18 10 - - N 1024,7 30 0,0
16.11.2017 14:00:00 10,5 5,0 24 13 - - N 1024,2 40 0,0
16.11.2017 13:00:00 10,5 6,9 31 17 - - N 1023,7 30 0,0
16.11.2017 12:00:00 10,4 8,5 28 15 - - N 1023,2 40 1,8
16.11.2017 11:00:00 12,7 10,8 22 12 - - W 1022,4 23 0,0
16.11.2017 10:00:00 12,2 10,4 24 13 - - W 1022,3 22 0,0
16.11.2017 09:00:00 12,4 9,7 31 17 - - WSW 1021,8 26 0,0
16.11.2017 08:00:00 12,2 9,2 28 15 - - WSW 1021,4 28 0,0
16.11.2017 07:00:00 12,0 9,1 31 17 - - WSW 1021,0 23 0,0
16.11.2017 06:00:00 12,2 9,4 34 18 - - WSW 1021,1 15 0,0
16.11.2017 05:00:00 12,2 9,5 34 18 - - WSW 1020,8 14 0,0
16.11.2017 04:00:00 12,2 9,4 34 18 - - WSW 1021,0 17 0,0
16.11.2017 03:00:00 12,2 9,6 29 16 - - SW 1021,0 16 0,0
16.11.2017 02:00:00 12,3 9,6 35 19 - - SW 1021,3 21 0,0
16.11.2017 01:00:00 11,8 10,2 18 10 - - SW 1021,4 18 0,0
16.11.2017 00:00:00 11,8 10,2 21 11 - - SW 1022,0 18 0,0
15.11.2017 23:00:00 11,9 10,2 21 11 - - WSW 1022,6 21 0,0
15.11.2017 22:00:00 12,0 10,5 24 13 - - SW 1022,6 28 0,0
15.11.2017 21:00:00 12,1 10,7 21 11 - - SSW 1022,6 30 0,0
15.11.2017 20:00:00 12,0 11,1 15 8 - - SW 1022,7 25 0,0
15.11.2017 19:00:00 11,8 10,7 21 11 - - SW 1022,7 22 -
15.11.2017 18:00:00 11,6 11,2 13 7 - - SSE 1022,3 15 0,2
15.11.2017 17:00:00 11,9 11,4 9 5 - - SW 1023,1 3,8 3,0
15.11.2017 16:00:00 11,7 11,1 9 5 - - W 1023,4 5 0,4
15.11.2017 15:00:00 12,5 11,3 11 6 - - S 1023,7 12 0,0
15.11.2017 14:00:00 12,4 11,0 9 5 - - S 1024,0 14 0,0
15.11.2017 13:00:00 12,4 11,2 9 5 - - SSE 1024,0 18 0,0
15.11.2017 12:00:00 12,4 11,2 13 7 - - SSE 1024,2 22 0,0
15.11.2017 11:00:00 11,8 10,5 4 2 - - SSW 1024,7 40 0,0
15.11.2017 10:00:00 11,5 10,8 8 4 - - SW 1024,7 30 0,0
15.11.2017 09:00:00 11,1 10,8 2 1 - - SSE 1024,5 24 0,0
15.11.2017 08:00:00 10,2 9,8 5 3 - - WSW 1024,6 15 0,0
15.11.2017 07:00:00 11,1 10,9 5 3 - - SSE 1024,0 10 0,0
15.11.2017 06:00:00 10,4 10,0 4 2 - - NW 1024,1 6 0,0
15.11.2017 05:00:00 10,6 10,2 2 1 - - WNW 1023,7 5 0,0
15.11.2017 04:00:00 11,5 11,2 8 4 - - W 1023,5 7 0,4
15.11.2017 03:00:00 10,5 10,2 2 1 - - W 1023,8 4,1 0,2
15.11.2017 02:00:00 10,0 9,5 2 1 - - SE 1023,6 14 0,0
15.11.2017 01:00:00 10,0 9,4 4 2 - - WNW 1023,7 20 0,0
15.11.2017 00:00:00 10,9 10,5 16 9 - - WNW 1023,8 29 0,0
14.11.2017 23:00:00 11,6 11,2 13 7 - - W 1023,5 25 0,0
14.11.2017 22:00:00 11,9 11,5 13 7 - - W 1023,4 10 0,0
14.11.2017 21:00:00 12,1 11,7 21 11 - - W 1023,1 9 0,0
14.11.2017 20:00:00 12,1 11,7 22 12 - - WSW 1023,2 14 0,0
14.11.2017 19:00:00 12,1 11,6 21 11 - - WSW 1023,2 13 0,0
14.11.2017 18:00:00 12,2 11,6 21 11 - - W 1022,9 15 0,0
14.11.2017 17:00:00 12,2 11,6 28 15 - - WSW 1022,6 9 0,0
14.11.2017 16:00:00 12,3 11,9 29 16 - - WSW 1022,7 8 0,2
14.11.2017 15:00:00 12,2 11,7 34 18 - - WSW 1023,0 6 0,0
14.11.2017 14:00:00 12,4 11,7 34 18 - - WSW 1023,0 12 0,0
14.11.2017 13:00:00 12,2 11,4 34 18 - - WSW 1023,2 18 0,0
14.11.2017 12:00:00 11,9 11,4 28 15 - - WSW 1023,5 3,2 0,0
14.11.2017 11:00:00 11,8 11,4 24 13 - - W 1023,7 4,6 0,0
14.11.2017 10:00:00 11,7 11,1 24 13 - - W 1023,5 11 0,0
14.11.2017 09:00:00 11,6 10,8 26 14 - - WSW 1023,5 12 0,0
14.11.2017 08:00:00 11,5 10,4 24 13 - - W 1023,3 14 -
14.11.2017 07:00:00 11,4 10,2 28 15 - - W 1023,1 10 0,0
14.11.2017 06:00:00 11,6 9,9 24 13 - - W 1023,1 14 0,0
14.11.2017 05:00:00 11,5 9,6 26 14 - - W 1023,2 14 0,2
14.11.2017 04:00:00 11,3 9,0 34 18 - - W 1023,5 13 0,0
14.11.2017 03:00:00 11,6 8,6 29 16 - - W 1023,8 13 0,0
14.11.2017 02:00:00 10,8 8,8 26 14 - - W 1024,4 13 0,0
14.11.2017 01:00:00 10,5 7,9 28 15 46 25 W 1024,9 17 0,2
14.11.2017 00:00:00 11,1 7,1 31 17 - - W 1025,0 19 0,0
13.11.2017 23:00:00 10,8 6,6 34 18 - - W 1025,3 26 -
13.11.2017 22:00:00 10,4 6,5 29 16 - - W 1025,4 30 0,0
13.11.2017 21:00:00 10,1 5,5 24 13 - - W 1025,9 35 0,0
13.11.2017 20:00:00 10,0 4,6 28 15 - - W 1026,4 35 0,0
13.11.2017 19:00:00 9,7 4,5 22 12 - - W 1026,7 40 0,0
13.11.2017 18:00:00 9,4 3,3 16 9 - - W 1027,0 40 0,0
13.11.2017 17:00:00 9,1 2,4 16 9 - - W 1027,2 40 0,0
13.11.2017 16:00:00 9,4 4,1 16 9 - - W 1027,6 30 0,0
13.11.2017 15:00:00 9,9 5,4 5 3 - - SW 1027,6 29 0,0
13.11.2017 14:00:00 8,5 - 4 2 - - S 1028,0 35 0,0
13.11.2017 13:00:00 8,1 - 4 2 - - WSW 1028,6 - 0,0
13.11.2017 12:00:00 7,9 - 2 1 - - NE 1029,1 35 0,0
13.11.2017 11:00:00 7,3 3,8 4 2 - - E 1029,1 30 0,0
13.11.2017 10:00:00 3,7 3,0 8 4 - - ENE 1029,1 29 -
13.11.2017 09:00:00 0,7 0,2 5 3 - - N 1029,0 29 0,0
13.11.2017 08:00:00 0,6 0,2 9 5 - - E 1028,6 30 0,0
13.11.2017 07:00:00 -1,7 -2,6 5 3 - - ENE 1028,2 28 0,0
13.11.2017 06:00:00 -0,5 -1,4 9 5 - - ENE 1027,9 30 0,0
13.11.2017 05:00:00 -1,1 -2,0 9 5 - - NNW 1027,5 29 0,0
13.11.2017 04:00:00 -0,6 -1,8 8 4 - - N 1027,1 28 0,0
13.11.2017 03:00:00 1,6 0,4 8 4 - - NNE 1026,8 28 -
13.11.2017 02:00:00 4,3 3,0 16 9 - - NNW 1026,7 26 0,0
13.11.2017 01:00:00 5,1 3,2 15 8 - - NNW 1026,6 28 0,0
13.11.2017 00:00:00 6,2 3,7 21 11 - - WNW 1026,2 26 0,0
12.11.2017 23:00:00 5,8 2,8 16 9 - - NNW 1025,9 30 0,0
12.11.2017 22:00:00 5,7 2,6 16 9 - - N 1025,2 30 0,0
12.11.2017 21:00:00 6,1 3,8 16 9 - - NNW 1024,8 28 -
12.11.2017 20:00:00 5,8 3,1 13 7 - - N 1023,9 30 0,2
12.11.2017 19:00:00 6,3 3,9 24 13 - - N 1023,1 23 0,0
12.11.2017 18:00:00 6,4 3,9 26 14 - - NNW 1022,0 30 0,0
12.11.2017 17:00:00 6,2 4,5 22 12 55 30 N 1021,1 29 0,8
12.11.2017 16:00:00 8,2 3,0 34 18 54 29 NNW 1020,1 11 0,0
12.11.2017 15:00:00 7,5 3,6 37 20 61 33 N 1018,9 11 0,8
12.11.2017 14:00:00 7,2 3,9 37 20 63 34 NNW 1018,2 26 0,2
12.11.2017 13:00:00 7,3 4,9 29 16 63 34 NNW 1017,6 18 -
12.11.2017 12:00:00 6,4 4,1 39 21 65 35 N 1016,6 12 0,0
12.11.2017 11:00:00 9,2 4,7 50 27 68 37 NW 1015,9 10 0,0
12.11.2017 10:00:00 8,6 4,1 46 25 76 41 NNW 1015,0 29 0,2
12.11.2017 09:00:00 7,5 4,1 54 29 65 35 NW 1014,8 29 0,0
12.11.2017 08:00:00 7,6 3,4 39 21 65 35 NNW 1013,9 35 0,0
12.11.2017 07:00:00 7,9 3,8 44 24 63 34 NNW 1013,1 35 0,0
12.11.2017 06:00:00 7,9 3,9 29 16 - - NNW 1013,0 45 0,0
12.11.2017 05:00:00 7,5 4,9 26 14 46 25 NW 1012,7 40 0,0
12.11.2017 04:00:00 8,2 7,4 26 14 - - NNW 1012,3 35 0,0
12.11.2017 03:00:00 8,2 7,9 15 8 - - N 1011,9 14 0,0
12.11.2017 02:00:00 8,1 7,8 9 5 - - N 1011,6 19 0,2
12.11.2017 01:00:00 8,1 7,8 5 3 - - N 1011,6 7 0,2
12.11.2017 00:00:00 8,0 7,7 8 4 - - E 1011,7 4,8 -
11.11.2017 23:00:00 8,2 7,9 11 6 - - ENE 1012,2 2,7 0,8
11.11.2017 22:00:00 8,6 8,1 4 2 - - ENE 1012,3 2,9 0,2
11.11.2017 21:00:00 8,8 8,3 4 2 - - E 1012,4 4,2 0,4
11.11.2017 20:00:00 9,1 8,5 8 4 - - E 1012,7 3,0 -
11.11.2017 19:00:00 9,4 8,6 8 4 - - ENE 1013,0 9 0,2
11.11.2017 18:00:00 9,8 8,9 9 5 - - ENE 1013,2 30 0,2
11.11.2017 17:00:00 10,5 9,4 8 4 - - NNW 1013,4 12 0,8

tt = Température de l'air
td = dewpoint
ff = Vitesse du vent
fx = gusts
dd = Direction du vent
ppp = reduced air pressure
vv = visibility
rr = Quantités de précipitations

stations d'obs. à proximité